OPS 4682 DEB, 38363

Orbit data source: Space-Track

OPS 4682 DEB, 38363 is space debris in LEO originally from a launch on Sat, 03 Apr 1965 UTC launched from the Air Force Western Test Range (AFWTR). Debris objects in space refer to the collection of defunct objects orbiting the Earth. Examples of debris include non-operational satellites, rocket bodies, and fragments generated from explosions, collisions, or faulty payload assembly.

Loading next visibility...
Identifier
38363, 1965-027BQ
Orbit
LEO
Country
Flag of USUS
Related business
Manufacturer
Unknown
Mission
Spacecraft
Bus & Motor
Unknown
Mass
Unknown
Launch date (UTC)
1965-04-03 (61 years ago)
Launch vehicle
Unknown
Launch site
Air Force Western Test Range (AFWTR)
Object type
Payload
Rocket body
Debris
Shape & HBR
Unknown shape, 0.1 m
Radar Cross Section
Medium (>0.1 m² and <1 m²)

Expand to show TLE details & history
Last TLE update: 1 day ago

TLE from 1 day ago
0 OPS 4682 DEB
1 38363U 65027BQ  26262.27080164 -.00000227  00000-0 -76386-3 0  9995
2 38363  90.2481  11.7144 0027577 314.7342  45.1536 13.01318915564392
Epoch: 2026-09-19T06:29Z
TLE epoch observation values (Epoch: 2026-09-19T06:29:57.261Z)
Latitude
-0.00004°
Longitude
-83.95592°
Altitude
1,244.987 km
Speed
7.239 km/s
True Right ascension
00h 46m 51s
True Declination
0° 00' 00"
Sunlit
Object was in full shadow at epoch
Visualization orbit readout
Latitude
Unknown
Longitude
Unknown
Altitude
Unknown
Speed
Unknown
Apparent Right ascension
Unknown
Apparent Declination
Unknown
Sunlit
N/A
Visualization observer readout
Local Sidereal Time
10:58:07
Azimuth
Unknown
Elevation
Unknown
Doppler factor
Unknown
Orbital elements
Apogee altitude
1,275.096 km
Perigee altitude
1,233.001 km
Semi-major axis
7,632.185 km
Eccentricity
0.00276
Inclination
90.2481°
RAAN
11.7144°
Arg. of periapsis
314.7342°
True anomaly
45.3782°
Mean anomaly
45.1536°
Eccentric anomaly
45.26584°
Mean motion
3.25514 °/min
Orbital period
110.59 mins
BSTAR
-0.00076386
Loading maneuver chart data...
Computing Atmospheric mass density...
Loading historical data...
Loading historical data...
Loading historical data...
Loading historical data...
Loading historical data...
Loading historical data...
Loading historical data...

Documentation

Showing up to 5 results
|